Weather in Chilino

Russia / Tomsk District     55°50′05″N   83°32′00″E
temp.,
°C
wind,
m/s
gust,
m/s
humid.,
%
clouds,
%
prec.,
mm/h
press.,
hPa
HPBL,
m
9 march, tue
tue901:00−8w4119198 0.6 1013550
04:00−11wsw51192100 0.0 1018399
07:00−12sw51291100 0.1 1020598
10:00−12sw61191100 0.1 1023537
13:00−9sw6128398 0.1 1024701
16:00−7sw7128151 0.0 1023883
19:00−9ssw5128375 0.0 1022634
22:00−10ssw5148591 0.0 1022477
10 march, wed
wed1001:00−12ssw5148576 0.0 1020416
04:00−13ssw4118839 0.0 1020300
07:00−14ssw5119061 0.0 1019326
10:00−11ssw51189100 0.0 1018356
13:00−7ssw4787100 0.0 1017423
16:00−5s2485100 0.0 1015438
19:00−6ese2392100 0.0 101235
22:00−2se31195100 0.0 1008541
11 march, thu
thu1101:000s71497100 1.9 1002859
04:00+1ssw71499100 2.8 999684
07:00−1sw91683100 3.4 1000948
10:00−7sw9158795 0.1 1006907
13:00−6sw8148798 0.1 1010886
16:00−5sw71287100 0.1 10121000
19:00−7sw51385100 0.1 1014766
22:00−9s4119091 0.0 1015324
12 march, fri
fri1201:00−6s7159196 0.1 1011801
04:00−4sw81576100 0.9 10081291
07:00−12sw7158583 0.9 1010655
10:00−13sw7138693 0.0 1014816
13:00−12sw7118596 0.1 10151056
16:00−12sw71082100 0.1 10171104
19:00−14sw51089100 0.2 1017640
22:00−18sw3994100 0.0 1019268
13 march, sat
sat1301:00−21sw359990 0.1 101990
04:00−21sw3698100 0.0 1018153
07:00−20wsw3897100 0.1 1019349
10:00−18wsw5892100 0.1 1021576
13:00−16wsw5887100 0.2 1023652
16:00−15wsw6986100 0.0 1026727
19:00−18sw61289100 0.0 1028529
22:00−20sw6149095 0.0 1030440